Temperature
17 17 18 18 21 21 22 22 22 22 22 22 21 22 24 25 26 25 21 20 20 21 21 20 18 17 16 16 16 16 16 16 15 15 15 15 15 15 15 15 15 14 14 14 14 14 14 14 14
17 17 17 19 21 21 22 22 22 22 22 20 21 22 23 24 22 20 20 20 19 20 20 20 19 18 17 16 16 16 16 16 15 15 15 15 15 15 15 14 14 14 14 14 14 14 15 14 14
16 17 18 20 20 21 22 22 22 21 20 20 22 22 23 23 21 19 19 19 18 19 19 20 19 18 17 16 16 16 16 16 16 15 16 16 15 15 15 14 14 14 14 14 14 15 15 14 14
16 17 18 20 20 21 22 22 21 21 21 21 22 23 22 20 19 19 20 19 18 18 18 20 19 18 17 17 16 16 16 16 16 16 16 16 16 15 15 14 14 14 14 14 14 15 15 14 14
15 18 19 19 20 21 21 21 19 21 22 22 22 23 23 20 20 20 20 19 18 18 17 19 18 18 17 17 16 16 16 16 16 16 16 16 16 15 15 15 14 14 14 14 14 15 15 14 14
16 18 19 19 20 20 20 19 20 21 21 21 22 23 22 20 20 19 19 19 18 18 18 18 18 17 17 17 17 16 16 16 16 16 16 16 16 16 15 15 15 14 14 14 15 15 15 14 14
17 18 19 19 20 20 20 19 20 21 22 22 21 23 22 19 20 20 18 18 18 17 18 18 18 17 17 17 17 17 16 16 16 16 16 16 16 16 16 15 15 15 14 14 15 14 14 14 14
16 18 18 19 19 20 20 19 19 20 21 20 20 22 22 18 20 19 19 19 18 17 17 17 17 17 17 17 17 17 16 16 16 16 16 16 16 16 15 15 15 15 15 14 14 14 14 14 14
14 17 18 18 19 20 19 19 19 18 19 19 19 19 18 18 19 19 19 18 18 17 17 16 16 16 16 16 16 16 16 16 15 15 15 15 15 15 15 15 15 15 15 14 14 14 14 14 13
15 17 18 19 19 19 19 19 19 19 20 20 19 18 18 18 19 18 18 18 18 17 17 17 16 16 16 16 16 16 15 16 16 15 15 15 14 14 14 15 15 15 14 14 14 14 14 13 13
15 17 18 16 16 17 18 18 18 19 20 20 19 17 17 17 16 16 16 16 17 17 17 17 17 16 16 16 16 16 16 15 15 15 15 15 14 14 14 14 15 14 14 14 14 14 13 13 13
15 15 15 16 15 16 17 18 18 18 19 17 17 16 16 16 15 15 15 15 16 16 17 17 17 17 16 16 16 16 16 16 16 16 15 15 14 14 14 14 14 14 14 14 14 13 13 13 13
14 14 14 14 14 15 16 17 17 17 17 16 16 16 16 16 15 15 15 15 15 15 16 17 17 17 17 16 16 16 16 16 16 16 16 15 15 15 14 14 14 14 13 14 14 13 13 13 12
14 14 14 14 15 14 15 16 16 17 16 16 16 16 16 16 16 15 15 15 15 15 16 16 17 17 17 17 17 16 16 16 15 16 16 16 15 15 15 14 14 14 14 14 13 13 13 12 12
13 14 14 14 15 15 15 16 16 17 16 16 16 16 16 16 16 16 16 16 16 16 16 16 16 17 17 17 17 17 16 16 16 16 16 16 15 15 15 14 14 14 14 13 13 13 13 12 12
13 13 14 15 15 14 15 16 17 15 15 16 16 16 16 16 16 16 16 16 16 16 16 16 16 17 17 17 17 17 17 16 16 16 16 16 15 15 15 14 14 14 14 13 13 13 13 12 12
12 13 14 14 14 14 15 15 16 14 14 15 16 16 15 15 15 15 16 16 16 16 16 17 16 17 17 17 17 17 17 16 16 16 16 16 16 15 15 15 14 14 14 13 13 13 12 12 12
13 13 13 14 13 14 14 15 15 14 14 15 16 15 15 14 15 15 15 16 16 16 16 16 16 17 16 16 16 16 16 17 17 17 17 17 16 16 15 15 14 14 13 13 13 13 12 12 12
13 13 13 13 12 13 13 14 15 15 15 15 15 15 14 13 13 14 14 15 15 16 16 16 16 16 16 16 15 16 16 17 17 17 17 17 16 16 15 15 15 14 14 14 13 12 12 12 11
13 13 13 12 11 13 13 13 14 14 13 13 13 13 13 12 12 12 13 14 14 15 15 16 16 16 16 16 15 15 16 16 16 17 17 17 17 17 16 16 15 15 14 13 13 12 12 12 12
12 13 12 12 11 11 12 14 13 12 12 11 11 11 11 11 11 11 11 12 13 14 14 15 15 15 15 15 15 15 15 14 14 15 16 16 17 16 16 16 15 14 14 13 13 13 13 12 12
11 12 12 11 12 13 12 15 14 12 12 12 11 11 11 10 10 10 11 11 12 13 13 14 14 15 15 15 15 14 14 13 14 14 15 15 15 15 15 15 14 14 13 13 13 13 13 12 11
11 11 11 11 12 12 12 13 15 12 12 12 12 11 10 10 10 10 10 11 12 12 13 13 13 14 14 14 14 14 14 13 13 13 13 14 14 14 14 14 14 13 13 13 13 13 12 12 11
9 9 9 10 11 11 12 13 14 13 13 12 12 11 10 10 9 9 10 11 11 12 12 12 13 13 13 13 13 13 13 13 13 13 13 13 13 13 13 13 13 13 12 12 12 12 12 12 11
9 10 10 10 11 12 10 11 14 13 12 12 12 11 10 9 9 9 9 10 10 11 11 12 12 12 12 12 13 13 13 13 13 13 13 13 12 12 13 13 13 12 12 12 12 11 11 11 11
8 10 11 12 12 12 9 11 13 12 11 10 10 10 9 9 9 8 8 9 9 10 10 10 11 11 11 11 12 12 12 12 12 12 12 12 12 12 12 12 12 12 11 11 11 11 10 10 10
8 9 10 11 10 11 12 11 12 11 11 11 11 10 10 9 8 8 8 8 8 8 8 9 9 10 10 10 11 11 11 11 11 12 12 12 12 12 11 11 11 11 10 10 10 10 10 9 9
9 9 9 9 10 12 13 12 13 11 12 12 12 11 10 9 8 7 7 7 7 7 7 8 8 8 9 9 9 10 10 10 11 11 11 11 11 11 11 11 10 10 10 10 9 9 9 9 9
8 8 9 10 10 11 13 14 13 13 12 12 12 11 9 8 7 6 6 6 6 6 7 7 7 7 8 8 8 8 9 9 9 10 10 10 10 10 10 10 10 9 9 9 9 9 9 9 9
9 9 9 9 9 9 11 13 12 13 12 11 11 10 9 7 6 5 5 5 5 6 6 6 6 7 7 7 7 8 8 8 8 8 9 9 9 9 9 9 9 9 9 9 9 9 8 8 8
Wind_Speed
3 2 2 2 4 5 7 4 2 2 2 1 3 5 5 4 4 1 3 8 11 16 18 19 17 16 15 16 18 18 17 15 14 13 11 9 7 6 6 7 9 10 12 14 14 14 13 13 12
3 3 3 3 6 9 7 5 6 2 2 5 4 5 5 3 2 2 3 9 14 16 17 18 18 16 16 17 18 18 16 15 14 12 11 9 8 8 8 10 11 12 14 14 14 13 13 12 11
4 3 5 5 9 11 5 3 4 1 3 2 2 2 3 2 3 2 5 12 14 15 15 17 18 16 16 17 18 17 16 15 13 12 10 9 8 9 10 12 13 14 14 14 13 13 12 11 10
6 5 5 10 15 14 9 3 4 2 1 2 4 2 0 3 4 3 10 14 15 14 15 17 16 16 16 17 17 16 16 15 13 12 10 9 9 10 11 12 13 13 13 12 12 11 10 9 9
6 7 11 15 18 13 10 6 3 4 4 4 5 3 1 3 4 6 12 14 14 14 14 16 16 15 15 15 15 15 15 14 13 12 11 10 9 10 10 10 11 11 11 11 11 10 9 8 7
9 9 14 19 20 15 11 9 8 9 7 5 4 3 2 4 3 7 12 12 13 13 13 15 15 14 14 14 14 14 15 14 14 12 11 10 10 10 10 9 9 9 10 10 9 9 8 7 6
13 14 20 21 20 18 13 9 11 10 9 5 3 3 3 5 4 6 10 10 11 12 13 13 14 14 13 12 12 13 15 15 14 13 11 11 10 10 10 9 8 8 8 8 8 8 7 6 5
9 10 20 21 20 19 12 9 7 10 8 2 3 4 2 4 5 7 8 8 9 11 11 12 13 13 13 12 12 12 14 15 15 13 12 12 11 10 10 9 8 8 8 8 8 8 7 6 6
7 12 19 20 16 13 10 10 7 3 5 4 3 2 3 2 8 8 7 7 8 9 10 11 11 11 11 11 11 13 13 15 15 14 14 13 11 11 10 9 7 7 7 7 8 9 8 8 7
12 16 20 10 10 9 12 11 8 7 7 6 4 0 2 6 9 9 9 9 10 10 10 10 10 11 10 9 10 11 13 14 15 13 14 12 10 9 8 10 7 7 7 8 9 10 8 6 6
12 15 11 5 6 7 11 9 7 8 7 6 4 1 2 6 8 9 9 9 9 10 10 10 10 10 10 9 9 9 10 12 14 14 14 12 10 9 9 9 10 10 10 9 10 9 6 5 4
11 9 8 7 6 6 8 7 7 7 4 5 3 1 3 6 8 9 9 9 9 10 11 11 11 10 11 10 9 9 9 10 11 13 15 13 10 9 9 9 9 10 9 8 8 6 6 6 6
10 9 6 5 6 5 5 6 4 6 4 3 2 2 3 5 7 9 9 9 10 11 11 12 12 12 11 11 9 10 10 11 13 13 15 15 11 10 10 9 10 10 9 9 8 8 7 7 6
10 8 7 6 6 5 7 8 7 8 5 6 6 6 5 5 7 8 9 11 11 12 12 12 14 14 13 11 11 10 11 12 13 14 16 17 14 12 11 10 10 11 11 10 10 9 8 7 6
10 9 7 7 8 5 5 12 14 12 9 10 10 9 8 8 8 9 10 10 11 12 12 13 14 15 15 15 14 12 12 13 13 14 16 18 17 15 13 11 10 12 13 12 10 10 8 6 6
11 11 11 10 10 8 8 13 8 6 8 11 11 11 10 10 10 9 9 10 10 11 12 13 12 14 16 15 13 12 13 14 13 15 16 19 20 18 15 12 12 13 13 12 10 9 8 8 7
11 14 17 10 9 8 12 11 6 4 5 8 9 9 9 10 10 9 8 9 10 11 11 12 13 15 16 16 13 13 13 13 14 15 15 18 21 21 18 13 13 15 13 11 11 10 10 9 8
17 14 14 13 7 9 11 11 7 6 7 10 10 10 9 9 9 8 7 8 8 9 10 11 12 14 15 13 12 11 12 13 14 14 16 18 18 21 19 14 15 15 12 12 12 12 11 9 8
13 12 11 9 4 6 9 11 11 10 11 12 11 10 8 7 6 5 5 5 5 5 7 9 10 11 11 11 12 13 14 14 13 14 18 19 19 19 18 14 15 15 15 15 16 13 13 10 9
13 12 9 5 3 3 5 10 9 6 6 6 5 4 2 1 2 3 4 3 4 5 6 7 8 9 11 11 11 12 13 12 14 13 15 19 20 20 17 18 16 16 15 17 17 16 12 10 10
10 10 9 6 4 2 4 5 4 3 4 4 5 4 4 4 4 5 5 5 5 5 5 6 7 8 9 10 10 10 11 11 12 14 15 18 20 20 19 18 17 16 16 16 18 19 18 13 13
8 5 7 6 5 3 2 3 5 6 8 8 8 7 6 6 6 6 6 7 7 7 6 6 6 6 7 8 9 12 13 14 16 15 14 16 18 18 19 18 17 17 15 17 17 19 17 17 13
6 7 6 3 2 2 4 5 6 8 9 8 6 6 6 6 6 7 7 7 7 7 7 6 6 5 5 6 8 10 12 13 13 14 16 16 15 17 17 18 17 17 16 17 17 18 19 17 16
11 7 6 3 1 5 6 7 6 8 10 9 5 4 5 5 6 6 7 7 7 8 8 8 8 7 6 5 6 8 11 13 14 15 14 14 13 14 17 17 17 17 16 17 18 17 19 18 18
6 6 4 4 5 5 4 5 5 7 7 7 4 2 4 5 6 7 8 9 9 10 10 9 9 9 8 8 7 7 9 11 13 14 14 14 13 13 15 15 16 15 16 16 15 15 16 18 18
6 5 4 5 5 4 4 6 3 5 4 5 3 3 4 4 5 7 8 9 9 10 10 10 10 10 10 9 9 8 8 8 9 11 12 13 12 13 14 14 15 15 15 13 12 11 12 12 13
7 5 1 0 0 3 5 4 4 5 6 7 4 2 3 4 5 6 7 8 9 9 10 10 10 10 10 10 10 9 9 8 9 10 11 10 11 10 12 12 13 13 12 12 11 9 10 9 9
1 5 4 4 4 4 4 5 7 13 12 8 2 3 5 5 5 6 7 8 8 8 9 9 9 9 10 10 9 8 9 9 9 8 9 9 9 9 9 10 10 9 9 9 9 8 9 10 8
6 4 3 3 3 3 3 3 5 14 11 5 2 5 6 6 6 6 7 7 8 8 8 9 9 9 9 10 9 9 9 9 8 7 7 7 6 6 6 5 6 6 7 8 9 9 10 11 9
4 5 6 4 4 3 3 2 4 8 6 3 5 6 5 4 4 5 6 7 8 9 9 9 9 9 10 9 9 9 9 9 8 8 7 6 5 4 2 1 2 4 6 7 9 10 11 11 11
Wind_Direction
265 279 268 247 234 233 238 219 215 186 185 321 297 260 252 245 239 272 66 153 146 150 150 153 151 154 155 153 146 141 139 137 134 131 127 124 119 113 111 121 128 130 121 113 106 104 102 101 100
236 226 219 221 234 230 226 218 212 196 348 321 277 244 244 243 346 37 131 151 152 151 152 156 151 156 155 151 146 144 142 140 137 133 128 125 121 112 108 108 112 115 112 108 106 106 106 105 103
202 228 211 212 228 230 223 194 197 148 338 331 328 246 278 335 13 63 135 151 154 153 154 149 153 156 155 151 150 149 147 144 140 135 131 130 127 117 109 102 104 106 105 105 107 109 110 107 102
193 183 207 225 228 229 231 126 137 168 35 1 339 286 251 35 4 86 141 154 155 156 156 152 156 155 153 152 153 153 151 148 144 140 136 136 135 124 112 103 103 105 106 108 109 111 112 109 104
204 200 212 225 231 227 229 227 215 264 307 333 330 316 91 60 45 127 151 157 158 158 157 156 157 155 155 157 159 160 158 152 149 146 144 144 141 131 122 114 110 111 113 114 116 117 115 112 107
191 206 220 226 228 225 228 227 238 258 274 296 304 290 95 67 83 139 156 161 161 160 160 158 156 155 158 162 165 168 164 158 154 153 151 150 146 140 133 131 128 126 125 125 125 124 121 116 113
204 207 223 228 231 227 226 217 233 250 257 264 283 259 131 81 85 147 159 163 164 165 166 165 168 166 164 168 173 175 169 163 159 158 156 150 145 146 147 146 145 140 137 134 132 129 125 121 121
217 213 225 227 230 231 220 209 231 239 250 240 240 245 126 76 123 146 154 163 171 175 175 173 176 178 180 183 183 183 174 168 164 163 158 150 148 153 156 163 156 152 145 140 136 130 126 122 122
198 214 219 217 225 226 200 203 202 208 215 199 219 306 3 115 146 152 157 169 179 187 186 183 183 184 187 189 183 190 183 177 172 172 165 166 174 172 173 171 160 164 158 152 145 134 129 126 122
197 216 220 214 214 201 185 196 185 183 194 197 200 153 39 153 168 175 180 183 187 192 195 194 193 192 193 191 191 197 195 190 193 190 183 191 188 183 179 163 180 179 168 161 150 140 147 167 151
202 221 211 186 183 177 176 182 183 197 197 193 186 105 118 170 186 195 198 197 198 199 201 206 206 203 201 198 200 199 200 199 203 201 195 197 193 187 190 183 187 191 186 181 158 171 183 185 172
202 207 197 180 162 165 171 174 186 206 172 130 106 72 157 184 198 206 210 210 208 209 210 211 213 213 212 212 208 208 206 203 204 205 203 201 200 200 198 199 195 196 197 194 194 201 187 189 187
197 188 179 159 162 168 175 198 214 219 197 194 227 231 216 208 210 214 220 221 219 219 217 217 216 217 216 218 221 219 216 212 210 208 209 208 206 206 205 207 204 206 204 200 205 206 197 197 193
190 176 178 185 185 191 218 235 238 237 225 227 233 238 236 235 233 231 228 230 228 226 223 218 217 217 218 218 221 223 223 220 221 215 214 213 214 213 210 212 210 210 208 208 208 210 203 202 200
181 189 202 211 208 203 216 240 236 244 241 244 243 245 252 256 252 248 246 243 241 238 232 225 221 219 219 221 223 226 226 225 223 222 219 216 218 217 215 218 214 212 210 209 210 209 207 204 200
180 201 217 213 213 207 215 245 224 227 233 242 246 249 255 260 260 260 260 255 252 248 241 235 226 225 224 223 223 223 226 227 228 226 224 221 220 218 218 220 218 213 208 205 203 202 202 202 204
185 206 210 200 203 203 216 246 224 199 230 245 247 252 258 265 268 270 269 264 259 254 248 242 234 232 230 228 225 224 226 228 231 230 228 224 222 219 218 220 218 212 207 206 204 205 207 207 205
188 194 198 198 180 200 218 235 232 236 252 259 261 263 265 269 276 286 289 281 270 262 256 250 243 239 238 234 230 227 228 230 231 231 231 229 225 221 221 221 219 211 209 208 206 204 206 210 198
178 183 184 183 158 206 225 243 252 259 258 260 262 264 265 272 287 301 304 299 285 271 260 254 250 245 241 235 229 227 228 229 230 230 232 231 229 224 221 222 219 212 211 211 208 204 203 202 187
172 178 171 150 149 220 239 257 262 267 259 260 258 255 263 300 351 360 350 337 315 295 283 270 260 255 247 241 238 237 236 235 233 231 232 231 230 226 221 222 220 214 214 213 210 204 204 198 190
174 183 172 154 148 152 276 242 176 114 114 113 111 103 83 50 32 27 25 21 7 347 323 298 283 272 262 256 248 245 242 241 238 235 233 230 228 227 223 223 224 218 216 215 211 206 205 203 201
167 165 156 153 188 189 270 222 152 132 122 114 105 88 68 50 38 31 24 21 13 1 346 327 310 290 277 265 250 243 238 238 238 238 239 237 231 228 226 225 225 223 219 220 215 211 213 210 203
134 118 122 133 181 236 216 240 170 159 150 135 111 78 53 36 28 24 17 8 4 359 352 345 337 324 307 280 259 252 248 249 251 250 248 245 238 231 227 224 225 225 222 222 219 214 214 214 210
124 104 86 92 204 237 207 219 193 179 167 152 129 76 41 25 18 15 10 3 0 358 353 347 341 338 333 315 285 261 257 255 254 252 251 249 245 237 231 225 225 225 224 223 223 218 216 217 218
148 152 163 189 209 224 153 222 225 158 161 162 144 50 10 4 5 4 1 357 353 351 348 342 338 333 332 325 311 291 274 266 260 258 255 253 250 244 236 227 227 226 226 225 223 220 218 218 220
171 196 215 208 204 176 180 228 173 153 175 198 232 289 323 349 359 359 356 350 347 345 343 340 335 330 329 326 320 309 292 277 268 264 261 259 256 253 248 236 231 229 226 222 218 219 217 215 217
157 190 288 64 75 236 208 228 239 191 191 199 214 279 335 349 354 353 352 351 347 345 343 339 333 330 331 329 324 317 310 295 284 278 271 266 264 264 258 246 234 228 222 214 206 209 206 201 202
147 149 165 195 218 227 205 213 184 173 175 181 210 334 346 348 353 355 354 353 350 347 345 345 343 338 335 334 331 326 321 314 304 293 282 275 273 269 262 253 240 226 214 200 191 188 185 181 176
155 168 186 189 248 247 215 162 150 166 167 174 318 339 341 347 352 353 353 353 352 354 355 356 354 350 347 344 341 339 337 333 328 321 313 305 297 286 269 254 233 210 193 182 175 171 166 165 157
216 197 183 202 211 226 264 146 127 170 174 226 313 332 340 349 353 355 356 359 2 2 2 2 0 358 356 353 355 359 357 357 360 358 354 350 345 342 329 285 176 161 159 160 159 156 154 152 148
Height
1532 1533 1535 1536 1535 1532 1529 1526 1527 1528 1528 1529 1530 1529 1526 1524 1524 1527 1527 1525 1526 1529 1532 1534 1536 1539 1541 1543 1545 1547 1548 1549 1550 1551 1551 1551 1551 1551 1551 1551 1551 1552 1553 1554 1555 1555 1555 1554 1554
1531 1533 1536 1535 1531 1532 1528 1525 1527 1527 1529 1530 1529 1528 1526 1524 1526 1526 1523 1524 1527 1530 1533 1535 1537 1539 1541 1544 1545 1547 1548 1549 1550 1551 1551 1551 1551 1552 1552 1553 1553 1554 1554 1555 1556 1556 1556 1555 1555
1530 1532 1535 1531 1529 1528 1525 1524 1525 1529 1530 1529 1528 1527 1526 1526 1526 1525 1523 1524 1528 1531 1534 1535 1537 1540 1542 1544 1545 1547 1548 1549 1550 1551 1551 1551 1552 1552 1553 1554 1554 1555 1556 1557 1557 1557 1557 1557 1557
1529 1533 1533 1529 1526 1523 1522 1525 1528 1529 1529 1529 1528 1526 1526 1526 1526 1525 1524 1526 1529 1532 1535 1536 1538 1540 1542 1544 1546 1547 1548 1549 1550 1551 1551 1552 1552 1553 1554 1555 1555 1556 1557 1558 1558 1558 1558 1558 1558
1528 1528 1527 1525 1522 1521 1524 1527 1529 1528 1528 1528 1527 1525 1525 1526 1525 1525 1526 1528 1531 1533 1535 1536 1538 1540 1543 1544 1546 1547 1548 1549 1550 1551 1552 1552 1553 1553 1554 1555 1556 1557 1558 1558 1559 1559 1559 1560 1560
1525 1523 1521 1520 1518 1520 1524 1527 1528 1528 1527 1528 1527 1525 1525 1525 1525 1526 1527 1529 1532 1534 1535 1537 1538 1541 1543 1545 1546 1547 1548 1549 1550 1551 1552 1553 1553 1554 1555 1556 1557 1558 1558 1559 1559 1560 1560 1561 1561
1520 1517 1515 1514 1515 1517 1521 1525 1526 1525 1526 1527 1527 1525 1525 1526 1526 1527 1528 1530 1532 1534 1536 1537 1539 1541 1543 1544 1546 1548 1549 1550 1551 1551 1552 1553 1554 1554 1555 1556 1557 1558 1559 1559 1560 1560 1561 1561 1561
1516 1515 1512 1511 1513 1514 1518 1522 1523 1524 1524 1526 1526 1524 1524 1526 1526 1527 1528 1529 1531 1533 1535 1537 1539 1541 1542 1544 1546 1547 1549 1550 1551 1552 1552 1553 1554 1555 1555 1556 1557 1558 1559 1559 1560 1560 1561 1561 1561
1515 1514 1508 1508 1512 1512 1517 1520 1522 1523 1524 1525 1525 1525 1525 1525 1525 1526 1527 1529 1530 1532 1534 1536 1538 1540 1542 1544 1545 1546 1548 1549 1550 1551 1552 1553 1554 1555 1555 1556 1557 1558 1558 1559 1560 1560 1561 1561 1561
1513 1508 1504 1507 1510 1512 1515 1517 1519 1521 1522 1523 1524 1524 1523 1523 1524 1526 1526 1527 1529 1531 1533 1535 1537 1539 1541 1542 1544 1546 1547 1548 1549 1551 1551 1552 1554 1555 1555 1555 1556 1557 1558 1559 1559 1560 1560 1560 1561
1508 1504 1505 1511 1512 1513 1514 1516 1518 1518 1519 1521 1522 1523 1522 1523 1523 1525 1526 1527 1528 1530 1531 1533 1535 1537 1539 1541 1543 1544 1546 1547 1548 1549 1550 1551 1552 1553 1554 1554 1555 1556 1557 1558 1558 1559 1559 1559 1560
1507 1508 1509 1510 1513 1514 1514 1516 1517 1518 1519 1521 1521 1522 1522 1522 1523 1524 1525 1526 1527 1528 1530 1532 1533 1535 1537 1539 1541 1542 1543 1544 1545 1546 1548 1549 1550 1551 1552 1553 1554 1555 1556 1556 1557 1558 1558 1558 1558
1506 1508 1510 1511 1513 1514 1516 1516 1517 1517 1519 1520 1520 1521 1522 1522 1523 1524 1524 1525 1526 1527 1528 1530 1531 1533 1535 1536 1538 1539 1540 1542 1543 1544 1545 1546 1547 1548 1549 1550 1551 1552 1553 1554 1555 1555 1556 1556 1556
1506 1507 1509 1511 1513 1514 1515 1515 1517 1515 1518 1519 1519 1520 1521 1521 1522 1522 1523 1524 1525 1526 1527 1528 1529 1531 1532 1533 1534 1536 1537 1538 1539 1540 1541 1542 1543 1544 1545 1546 1547 1549 1549 1551 1552 1553 1553 1553 1554
1506 1508 1509 1510 1511 1513 1515 1513 1513 1513 1515 1516 1517 1518 1518 1519 1519 1519 1520 1521 1522 1523 1524 1525 1526 1527 1529 1530 1531 1532 1533 1534 1535 1536 1537 1538 1539 1540 1541 1542 1543 1544 1546 1547 1548 1549 1550 1550 1551
1505 1507 1507 1506 1509 1511 1515 1508 1508 1511 1512 1512 1513 1514 1515 1515 1515 1516 1516 1517 1518 1519 1520 1522 1522 1523 1524 1525 1527 1528 1529 1530 1530 1531 1532 1533 1534 1535 1536 1537 1538 1540 1541 1542 1543 1544 1546 1546 1547
1502 1501 1501 1504 1507 1507 1509 1505 1506 1509 1510 1510 1510 1511 1511 1511 1512 1512 1512 1513 1513 1514 1516 1517 1518 1519 1520 1521 1522 1522 1523 1524 1525 1526 1527 1528 1529 1530 1531 1532 1533 1534 1535 1537 1538 1539 1541 1542 1543
1494 1494 1498 1500 1505 1505 1505 1503 1505 1506 1507 1507 1506 1507 1507 1507 1507 1507 1507 1507 1508 1509 1510 1511 1512 1514 1515 1516 1516 1517 1517 1518 1519 1520 1521 1522 1523 1524 1525 1526 1527 1528 1529 1531 1532 1534 1536 1537 1539
1489 1494 1496 1499 1505 1505 1503 1503 1502 1503 1503 1503 1503 1503 1504 1504 1503 1502 1502 1502 1502 1503 1504 1505 1506 1508 1509 1510 1510 1510 1510 1511 1512 1513 1514 1515 1516 1517 1518 1519 1521 1521 1522 1524 1526 1528 1529 1531 1533
1491 1493 1497 1504 1506 1504 1503 1501 1499 1501 1501 1501 1501 1501 1501 1501 1500 1499 1498 1497 1498 1498 1498 1499 1500 1501 1502 1503 1503 1504 1505 1505 1506 1506 1507 1508 1509 1510 1511 1512 1513 1514 1515 1517 1518 1520 1522 1524 1526
1492 1493 1496 1500 1505 1507 1504 1495 1497 1500 1501 1501 1501 1500 1500 1499 1498 1497 1496 1494 1494 1493 1493 1493 1494 1494 1495 1496 1497 1497 1497 1497 1498 1498 1499 1500 1501 1502 1503 1504 1505 1506 1508 1509 1510 1512 1514 1516 1518
1494 1495 1497 1500 1499 1498 1502 1490 1495 1499 1500 1501 1501 1500 1499 1498 1497 1496 1494 1493 1491 1490 1490 1489 1489 1489 1489 1489 1489 1490 1490 1490 1490 1492 1492 1493 1494 1494 1495 1496 1497 1499 1500 1501 1503 1505 1506 1509 1510
1495 1499 1500 1502 1500 1501 1501 1496 1488 1497 1498 1499 1500 1500 1499 1498 1496 1495 1493 1491 1490 1488 1487 1486 1485 1485 1484 1484 1484 1484 1483 1484 1485 1485 1485 1486 1486 1486 1487 1488 1489 1490 1491 1493 1495 1496 1498 1500 1502
1499 1503 1505 1505 1503 1500 1496 1495 1485 1490 1492 1496 1498 1499 1498 1497 1495 1494 1492 1490 1488 1486 1485 1483 1482 1481 1480 1479 1478 1478 1477 1478 1478 1478 1478 1478 1478 1478 1479 1480 1480 1481 1483 1484 1486 1488 1489 1491 1494
1498 1501 1503 1503 1500 1492 1502 1498 1484 1489 1493 1495 1497 1497 1497 1496 1494 1492 1490 1487 1485 1483 1482 1480 1479 1478 1476 1475 1474 1473 1472 1471 1471 1471 1471 1471 1471 1471 1471 1472 1472 1473 1474 1476 1478 1479 1480 1482 1485
1498 1497 1495 1491 1487 1487 1504 1493 1484 1490 1494 1496 1497 1497 1496 1494 1492 1490 1487 1485 1482 1480 1478 1476 1475 1473 1472 1470 1469 1468 1467 1465 1465 1464 1464 1464 1463 1463 1464 1464 1464 1465 1467 1468 1470 1471 1472 1474 1476
1499 1497 1498 1495 1496 1489 1484 1488 1487 1490 1492 1494 1495 1495 1494 1492 1490 1488 1485 1482 1479 1477 1474 1472 1470 1469 1467 1465 1464 1463 1461 1460 1459 1458 1457 1456 1456 1456 1457 1457 1457 1458 1459 1460 1462 1463 1465 1467 1468
1497 1497 1499 1499 1492 1481 1478 1480 1475 1485 1487 1490 1491 1491 1490 1489 1487 1485 1482 1479 1476 1474 1471 1469 1467 1465 1463 1461 1459 1458 1456 1454 1453 1452 1451 1450 1450 1449 1449 1450 1450 1451 1452 1453 1454 1456 1457 1459 1461
1498 1499 1496 1494 1493 1484 1474 1473 1474 1478 1483 1487 1488 1488 1487 1486 1484 1481 1479 1476 1473 1471 1469 1466 1464 1462 1460 1458 1456 1454 1452 1450 1448 1447 1445 1444 1444 1443 1443 1443 1444 1444 1445 1446 1447 1449 1450 1452 1454
1494 1493 1494 1493 1495 1494 1483 1477 1478 1479 1483 1485 1485 1485 1484 1483 1481 1478 1476 1473 1471 1469 1466 1464 1462 1459 1457 1455 1452 1450 1448 1446 1444 1443 1441 1440 1439 1438 1438 1438 1438 1438 1439 1440 1441 1442 1444 1446 1448